Torna al catalogo

FENGYUN 1C DEB

AttivoPO
NORAD 31410·DEBRIS·🇨🇳 China

Lanciato May 10, 1999 da Taiyuan Satellite Launch Center

Loading…

Prossimi Passaggi (prossime 24 ore)

TLE

AggiornatoSource: Space-Track

Epoca: Sep 12, 2026, 08:07 UTC

1 31410U 99025BSW 26255.33851019  .00001591  00000-0  42786-3 0  9990
2 31410  98.8598  73.5624 0108552 187.5123 293.7523 14.46109559 17006

Traccia FENGYUN 1C DEB in tempo reale con AllMySat

Download on the App Store